ENST Weather Reports


Display with metric or nautical units.
time (UTC)temp
F
wind
direction
speed
MPH
gust
MPH
rain 1hr
in
rain 24hr
in
rain mn
in
humidity
%
barometer
mb
20260503173308 42 210 24.0 0.0 0.00 0.00 0.00 56 1003.0
20260503170307 41 200 24.0 0.0 0.00 0.00 0.00 65 1004.0
20260503150307 41 200 22.0 33.0 0.00 0.00 0.00 65 1006.0
20260503140308 42 200 20.0 0.0 0.00 0.00 0.00 56 1006.0
20260503130307 41 200 18.0 0.0 0.00 0.00 0.00 60 1007.0
20260503110307 42 200 15.0 0.0 0.00 0.00 0.00 65 1008.0
20260503090308 42 230 16.0 0.0 0.00 0.00 0.00 48 1009.0
20260503080308 41 220 14.0 0.0 0.00 0.00 0.00 60 1008.0
20260503070308 39 230 14.0 0.0 0.00 0.00 0.00 51 1009.0
20260503060307 37 190 8.0 0.0 0.00 0.00 0.00 64 1009.0
20260503053306 35 190 5.0 0.0 0.00 0.00 0.00 69 1009.0
20260503050307 33 170 6.0 0.0 0.00 0.00 0.00 80 1009.0
20260503043309 35 270 9.0 0.0 0.00 0.00 0.00 74 1009.0
20260503040306 33 150 6.0 0.0 0.00 0.00 0.00 74 1009.0
20260503033307 35 240 6.0 0.0 0.00 0.00 0.00 69 1009.0
20260503030307 35 0 7.0 18.0 0.00 0.00 0.00 74 1009.0
20260503023306 37 290 9.0 0.0 0.00 0.00 0.00 59 1009.0
20260503020307 37 270 10.0 0.0 0.00 0.00 0.00 59 1009.0
20260503013308 35 290 8.0 0.0 0.00 0.00 0.00 74 1009.0
20260503010309 35 0 0.0 0.0 0.00 0.00 0.00 80 1009.0
20260503003309 35 0 8.0 0.0 0.00 0.00 0.00 80 1010.0
20260503000306 37 290 9.0 0.0 0.00 0.00 0.00 69 1010.0
20260502233310 37 290 12.0 0.0 0.00 0.00 0.00 69 1010.0
20260502230307 37 280 9.0 0.0 0.00 0.00 0.00 64 1010.0
20260502223307 37 270 12.0 0.0 0.00 0.00 0.00 64 1009.0
20260502220307 37 290 9.0 0.0 0.00 0.00 0.00 74 1009.0
20260502213308 35 0 8.0 0.0 0.00 0.00 0.00 80 1009.0
20260502210306 35 300 13.0 0.0 0.00 0.00 0.00 93 1009.0
20260502203306 37 340 6.0 0.0 0.00 0.00 0.00 86 1009.0
20260502200307 37 0 5.0 0.0 0.00 0.00 0.00 86 1008.0
20260502193309 37 320 10.0 0.0 0.00 0.00 0.00 86 1008.0
20260502190307 39 240 7.0 0.0 0.00 0.00 0.00 86 1007.0
20260502183306 39 230 12.0 0.0 0.00 0.00 0.00 80 1007.0
20260502180308 39 240 12.0 0.0 0.00 0.00 0.00 75 1007.0